Regional Weather Roundup
Issued by NWS

Home | Current Version | Previous Version | Graphics & Text | Print | Product List | Glossary On
Versions: 1 2 3 4 5 6 7 8 9 10 11 12 13 14 15 16 17 18 19 20 21 22 23 24 25 26 27 28 29 30 31 32 33 34 35 36 37 38 39 40 41 42 43 44 45 46 47 48 49 50
856
ASUS44 KLIX 171610
RWRLA
LOUISIANA WEATHER ROUNDUP
NATIONAL WEATHER SERVICE NEW ORLEANS LA
1100 AM CDT THU APR 17 2014

NOTE: "FAIR" INDICATES FEW OR NO CLOUDS BELOW 12,000 FEET WITH NO
      SIGNIFICANT WEATHER AND/OR OBSTRUCTIONS TO VISIBILITY.
      SKY/WX - SKY CONDITION AND SIGNIFICANT WEATHER.
      TMP - AIR TEMPERATURE.    DP   - DEWPOINT TEMPERATURE.
      RH  - RELATIVE HUMIDITY.  PRES - PRESSURE.
      HX  - HEAT INDEX.         WCI  - WIND CHILL INDEX.

*  THESE STATIONS ARE NOT NWS OR FAA STATIONS AND ARE NOT UNDER
   NWS QUALITY CONTROL.

LAZ040-048-061>063-065-066-069-171700-
SOUTHEAST LOUISIANA

CITY           SKY/WX    TMP DP  RH WIND       PRES   REMARKS
N.O. AUDUBON     N/A     67  55  65 MISG        N/A
N.O. INTL ARPT CLOUDY    63  55  75 NE9       30.21R
N.O. LAKEFRONT CLOUDY    62  55  77 E10       30.21R
N.O. DOWNTOWN* CLOUDY    63  52  67 E3        30.21R
SLIDELL        CLOUDY    65  54  67 E8        30.19S
BATON ROUGE    PTSUNNY   65  51  60 NE10      30.20R
BOOTHVILLE     MOSUNNY   69  63  81 NE8       30.17R
BELLE CHASSE   PTSUNNY   65  57  75 NE13      30.20R
BOGALUSA*        N/A     64  52  66 E9        30.22S
GALLIANO*      CLOUDY    67  59  75 N12       30.18R
NEW ROADS*     CLOUDY    62  51  66 E10G17    30.21R
GONZALES*      CLOUDY    64  54  70 E7        30.20R
HAMMOND*       CLOUDY    64  52  63 E7        30.23R
HOUMA*         CLOUDY    66  55  68 NE12      30.17R
PORT FOURCHON* CLOUDY    66  59  77 NE9G15    30.19R

$$

LAZ041-044-053-054-171700-
SOUTHWEST LOUISIANA

CITY           SKY/WX    TMP DP  RH WIND       PRES   REMARKS
LAKE CHARLES   CLOUDY    59  51  75 E8        30.18S
LAFAYETTE      CLOUDY    62  52  69 NE6       30.19R
PATTERSON      CLOUDY    63  54  72 NE6         N/A
SALT POINT       N/A     66  55  67 VRB3      30.18R
NEW IBERIA     CLOUDY    63  52  67 NE8       30.20R
CHENAULT AIRPK CLOUDY    59  52  77 E5        30.19R

$$

LAZ027-028-171700-
CENTRAL LOUISIANA

CITY           SKY/WX    TMP DP  RH WIND       PRES   REMARKS
FORT POLK      CLOUDY    60  48  64 S8        30.20R
ALEXANDRIA INT PTSUNNY   62  49  62 SE6       30.19R
ALEXANDRIA     MOSUNNY   65  48  54 E8        30.20R

$$

LAZ001-002-171700-
NORTHWEST LOUISIANA

CITY           SKY/WX    TMP DP  RH WIND       PRES   REMARKS
SHREVEPORT     CLOUDY    60  49  66 SE9       30.21R
BARKSDALE AFB  CLOUDY    60  47  63 E8        30.21R
DTN SHREVEPORT CLOUDY    59  48  67 E12       30.21R

$$

LAZ014-016-171700-
NORTHEAST LOUISIANA

CITY           SKY/WX    TMP DP  RH WIND       PRES   REMARKS
MONROE         PTSUNNY   63  47  55 CALM      30.24S
TALLULAH       SUNNY     63  48  58 E8        30.23F

$$




USA.gov is the U.S. government's official web portal to all federal, state and local government web resources and services.